AFR334 KBOS-LFPG

Flight info

Callsign AFR334
Flight time N/A
Altitude 39000
Route CELTK7 CELTK DCT FRILL DCT TUSKY N501B ALLRY/M084F400 DCT 51N050W 52N040W 53N030W 54N020W DCT DOGAL DCT BEXET/N0486F410 DCT OSGAR DCT GTG DCT MORAG DCT NUCHU L18 MID/N0501F290 Y803 SFD UM605 BIBAX
Aircraft A359/H-SDE2E3GHIJ3J4J5LM1ORWXY/LB1D1

Departure

Time 2026-05-06 11:45
Airport Boston Logan International Airport (KBOS)

Arrival

Time N/A
Airport Charles de Gaulle International Airport (LFPG)
Time Latitude Longitude Altitude Speed Heading
2026-05-06 11:34 42.37040 -71.01794 35 ft 0 kts 209°
2026-05-06 11:35 42.37047 -71.01789 33 ft 4 kts 206°
2026-05-06 11:35 42.37072 -71.01777 33 ft 4 kts 189°
2026-05-06 11:36 42.37099 -71.01775 33 ft 4 kts 170°
2026-05-06 11:36 42.37124 -71.01785 33 ft 4 kts 153°
2026-05-06 11:36 42.37147 -71.01805 33 ft 4 kts 137°
2026-05-06 11:36 42.37163 -71.01829 32 ft 2 kts 123°
2026-05-06 11:37 42.37164 -71.01831 32 ft 0 kts 123°
2026-05-06 11:39 42.37160 -71.01823 35 ft 2 kts 123°
2026-05-06 11:39 42.37142 -71.01783 33 ft 6 kts 118°
2026-05-06 11:39 42.37137 -71.01724 35 ft 7 kts 79°
2026-05-06 11:39 42.37146 -71.01651 35 ft 8 kts 92°
2026-05-06 11:40 42.37118 -71.01583 36 ft 9 kts 133°
2026-05-06 11:40 42.37066 -71.01511 32 ft 12 kts 134°
2026-05-06 11:40 42.36997 -71.01420 32 ft 15 kts 135°
2026-05-06 11:40 42.36941 -71.01344 32 ft 7 kts 135°
2026-05-06 11:41 42.36921 -71.01274 31 ft 9 kts 87°
2026-05-06 11:41 42.36937 -71.01178 31 ft 12 kts 64°
2026-05-06 11:41 42.36991 -71.01109 30 ft 12 kts 30°
2026-05-06 11:41 42.37079 -71.01049 28 ft 16 kts 26°
2026-05-06 11:42 42.37185 -71.00979 29 ft 18 kts 26°
2026-05-06 11:42 42.37305 -71.00905 28 ft 20 kts 21°
2026-05-06 11:42 42.37441 -71.00837 29 ft 21 kts 20°
2026-05-06 11:42 42.37543 -71.00787 29 ft 13 kts 20°
2026-05-06 11:43 42.37631 -71.00745 32 ft 14 kts 20°
2026-05-06 11:43 42.37719 -71.00702 35 ft 13 kts 19°
2026-05-06 11:43 42.37781 -71.00672 36 ft 9 kts 20°
2026-05-06 11:44 42.37832 -71.00533 32 ft 10 kts 110°
2026-05-06 11:44 42.37809 -71.00483 32 ft 1 kts 155°
2026-05-06 11:44 42.37798 -71.00480 32 ft 2 kts 166°
2026-05-06 11:44 42.37774 -71.00483 32 ft 5 kts 194°
2026-05-06 11:45 42.37739 -71.00498 32 ft 7 kts 198°
2026-05-06 11:45 42.37541 -71.00594 31 ft 67 kts 199°
2026-05-06 11:45 42.36850 -71.00927 36 ft 140 kts 199°
2026-05-06 11:45 42.35868 -71.01391 705 ft 149 kts 200°
2026-05-06 11:46 42.34882 -71.01726 1813 ft 145 kts 193°
2026-05-06 11:46 42.33885 -71.01421 2859 ft 156 kts 164°
2026-05-06 11:46 42.33078 -71.00323 3364 ft 179 kts 139°
2026-05-06 11:46 42.32288 -70.98903 3569 ft 198 kts 140°
2026-05-06 11:47 42.31429 -70.97356 3833 ft 223 kts 130°
2026-05-06 11:47 42.31094 -70.95201 4287 ft 253 kts 91°
2026-05-06 11:47 42.31432 -70.92760 4613 ft 276 kts 81°
2026-05-06 11:47 42.31906 -70.90153 4992 ft 293 kts 82°
2026-05-06 11:48 42.32333 -70.87434 5687 ft 297 kts 84°
2026-05-06 11:48 42.32714 -70.84671 6495 ft 300 kts 84°
2026-05-06 11:48 42.33092 -70.81895 7284 ft 303 kts 84°
2026-05-06 11:48 42.33299 -70.79066 7930 ft 304 kts 99°
2026-05-06 11:49 42.33004 -70.76236 8576 ft 305 kts 109°
2026-05-06 11:49 42.32589 -70.73407 9345 ft 308 kts 109°
2026-05-06 11:49 42.32186 -70.70584 9847 ft 313 kts 108°
2026-05-06 11:49 42.31782 -70.67647 10326 ft 325 kts 108°
2026-05-06 11:50 42.31363 -70.64549 10638 ft 345 kts 107°
2026-05-06 11:50 42.30959 -70.61264 10944 ft 365 kts 104°
2026-05-06 11:50 42.30665 -70.57766 11257 ft 384 kts 102°
2026-05-06 11:50 42.30384 -70.54103 11631 ft 397 kts 102°
2026-05-06 11:51 42.30090 -70.50377 12239 ft 402 kts 102°
2026-05-06 11:51 42.29783 -70.46610 12871 ft 407 kts 102°
2026-05-06 11:51 42.29467 -70.42832 13467 ft 412 kts 102°
2026-05-06 11:51 42.29140 -70.38977 14041 ft 416 kts 102°
2026-05-06 11:52 42.28805 -70.35079 14605 ft 420 kts 101°
2026-05-06 11:52 42.28465 -70.31150 15192 ft 423 kts 101°
2026-05-06 11:52 42.28121 -70.27186 15781 ft 427 kts 101°
2026-05-06 11:52 42.27771 -70.23181 16382 ft 431 kts 101°
2026-05-06 11:53 42.27417 -70.19147 16982 ft 434 kts 100°
2026-05-06 11:53 42.27059 -70.15087 17634 ft 437 kts 100°
2026-05-06 11:53 42.26702 -70.11056 18205 ft 440 kts 99°
2026-05-06 11:53 42.26309 -70.06940 18717 ft 443 kts 101°
2026-05-06 11:54 42.25807 -70.02818 19212 ft 447 kts 103°
2026-05-06 11:54 42.25240 -69.98682 19732 ft 450 kts 104°
2026-05-06 11:54 42.24650 -69.94511 20276 ft 453 kts 104°
2026-05-06 11:54 42.24124 -69.90299 20811 ft 458 kts 99°
2026-05-06 11:55 42.24012 -69.85980 21314 ft 465 kts 89°
2026-05-06 11:55 42.24491 -69.81661 21937 ft 468 kts 76°
2026-05-06 11:55 42.25609 -69.77529 22499 ft 471 kts 63°
2026-05-06 11:55 42.27184 -69.73707 23030 ft 474 kts 58°
2026-05-06 11:56 42.28957 -69.69947 23566 ft 477 kts 55°
2026-05-06 11:56 42.30823 -69.66224 24001 ft 480 kts 54°
2026-05-06 11:56 42.32729 -69.62491 24423 ft 484 kts 54°
2026-05-06 11:56 42.34646 -69.58721 24870 ft 488 kts 54°
2026-05-06 11:57 42.36557 -69.54922 25328 ft 491 kts 54°
2026-05-06 11:57 42.38476 -69.51063 25672 ft 497 kts 54°
2026-05-06 11:57 42.40400 -69.47159 26141 ft 499 kts 54°
2026-05-06 11:57 42.42298 -69.43285 26558 ft 502 kts 54°
2026-05-06 11:58 42.44230 -69.39328 26978 ft 506 kts 54°
2026-05-06 11:58 42.46176 -69.35336 27400 ft 509 kts 54°
2026-05-06 11:58 42.48134 -69.31314 27797 ft 513 kts 54°
2026-05-06 11:58 42.50100 -69.27270 28218 ft 516 kts 54°
2026-05-06 11:59 42.52080 -69.23197 28612 ft 520 kts 54°
2026-05-06 11:59 42.54078 -69.19080 28975 ft 524 kts 54°
2026-05-06 11:59 42.56082 -69.14946 29450 ft 525 kts 54°
2026-05-06 11:59 42.58089 -69.10798 29845 ft 528 kts 54°
2026-05-06 12:00 42.60106 -69.06627 30162 ft 531 kts 54°
2026-05-06 12:00 42.62108 -69.02479 30471 ft 533 kts 54°
2026-05-06 12:00 42.64141 -68.98263 30817 ft 534 kts 54°
2026-05-06 12:00 42.66180 -68.94027 31097 ft 537 kts 54°
2026-05-06 12:01 42.68227 -68.89768 31365 ft 539 kts 54°
2026-05-06 12:01 42.70275 -68.85500 31807 ft 537 kts 54°
2026-05-06 12:01 42.72284 -68.81301 32673 ft 524 kts 54°
2026-05-06 12:01 42.74252 -68.77179 33387 ft 517 kts 54°
2026-05-06 12:02 42.76183 -68.73136 33734 ft 517 kts 53°
2026-05-06 12:02 42.78143 -68.69033 34067 ft 517 kts 53°
2026-05-06 12:02 42.80097 -68.64938 34353 ft 516 kts 53°
2026-05-06 12:02 42.82048 -68.60844 34638 ft 515 kts 53°
2026-05-06 12:03 42.83995 -68.56750 34930 ft 515 kts 54°
2026-05-06 12:03 42.85940 -68.52654 35191 ft 514 kts 54°
2026-05-06 12:03 42.87869 -68.48581 35701 ft 508 kts 53°
2026-05-06 12:03 42.89773 -68.44554 36091 ft 505 kts 53°
2026-05-06 12:04 42.91654 -68.40575 36261 ft 506 kts 53°
2026-05-06 12:04 42.93568 -68.36527 36370 ft 509 kts 53°
2026-05-06 12:04 42.95483 -68.32468 36564 ft 509 kts 53°
2026-05-06 12:04 42.97396 -68.28408 36809 ft 508 kts 53°
2026-05-06 12:05 42.99307 -68.24344 37031 ft 508 kts 53°
2026-05-06 12:05 43.01213 -68.20283 37268 ft 508 kts 53°
2026-05-06 12:05 43.03117 -68.16222 37461 ft 508 kts 53°
2026-05-06 12:05 43.05020 -68.12157 37671 ft 507 kts 53°
2026-05-06 12:06 43.06922 -68.08091 37868 ft 508 kts 54°
2026-05-06 12:06 43.08795 -68.04080 38039 ft 508 kts 54°
2026-05-06 12:06 43.10693 -68.00010 38227 ft 507 kts 54°
2026-05-06 12:06 43.12584 -67.95946 38495 ft 505 kts 54°
2026-05-06 12:07 43.14469 -67.91892 38682 ft 504 kts 54°
2026-05-06 12:07 43.16353 -67.87837 38800 ft 505 kts 54°
2026-05-06 12:07 43.18236 -67.83776 38905 ft 505 kts 54°
2026-05-06 12:07 43.20121 -67.79709 38985 ft 507 kts 54°
2026-05-06 12:08 43.23882 -67.71575 39010 ft 510 kts 54°
2026-05-06 12:08 43.27673 -67.63348 39007 ft 510 kts 54°
2026-05-06 12:09 43.31457 -67.55113 39007 ft 510 kts 54°
2026-05-06 12:09 43.35235 -67.46870 39015 ft 511 kts 54°
2026-05-06 12:10 43.38988 -67.38657 39015 ft 511 kts 54°
2026-05-06 12:10 43.42763 -67.30374 39012 ft 511 kts 54°
2026-05-06 12:11 43.46533 -67.22079 39022 ft 511 kts 54°
2026-05-06 12:11 43.50300 -67.13767 39021 ft 512 kts 55°
2026-05-06 12:12 43.54037 -67.05497 39018 ft 512 kts 55°
2026-05-06 12:12 43.58074 -66.97477 39025 ft 508 kts 48°
2026-05-06 12:13 43.62513 -66.89873 39009 ft 509 kts 47°
2026-05-06 12:13 43.67010 -66.82330 39025 ft 509 kts 47°
2026-05-06 12:14 43.71479 -66.74825 39026 ft 509 kts 47°
2026-05-06 12:14 43.75966 -66.67247 39036 ft 509 kts 47°
2026-05-06 12:15 43.80446 -66.59650 39035 ft 509 kts 48°
2026-05-06 12:15 43.84922 -66.52039 39026 ft 509 kts 48°
2026-05-06 12:16 43.89360 -66.44474 39035 ft 509 kts 48°
2026-05-06 12:16 43.93828 -66.36837 39039 ft 510 kts 48°
2026-05-06 12:17 43.98293 -66.29186 39045 ft 510 kts 48°
2026-05-06 12:17 44.02755 -66.21520 39050 ft 510 kts 48°
2026-05-06 12:18 44.07209 -66.13847 39044 ft 510 kts 48°
2026-05-06 12:18 44.11633 -66.06205 39039 ft 510 kts 49°
2026-05-06 12:19 44.16080 -65.98501 39049 ft 510 kts 49°
2026-05-06 12:19 44.20523 -65.90785 39048 ft 511 kts 49°
2026-05-06 12:20 44.24961 -65.83058 39059 ft 510 kts 49°
2026-05-06 12:20 44.29357 -65.75384 39058 ft 510 kts 49°
2026-05-06 12:21 44.33777 -65.67645 39056 ft 510 kts 49°
2026-05-06 12:21 44.38203 -65.59877 39053 ft 511 kts 49°
2026-05-06 12:22 44.42625 -65.52093 39057 ft 511 kts 49°
2026-05-06 12:22 44.47012 -65.44350 39072 ft 511 kts 49°
2026-05-06 12:23 44.51432 -65.36530 39059 ft 513 kts 50°
2026-05-06 12:23 44.55853 -65.28684 39058 ft 513 kts 50°
2026-05-06 12:24 44.60275 -65.20816 39052 ft 513 kts 50°
2026-05-06 12:24 44.64663 -65.12987 39049 ft 514 kts 50°
2026-05-06 12:25 44.69085 -65.05076 39033 ft 515 kts 50°
2026-05-06 12:25 44.73506 -64.97144 39028 ft 516 kts 50°
2026-05-06 12:26 44.77936 -64.89174 39029 ft 517 kts 50°
2026-05-06 12:26 44.82369 -64.81177 39018 ft 519 kts 50°
2026-05-06 12:27 44.86773 -64.73209 39018 ft 519 kts 50°
2026-05-06 12:27 44.91198 -64.65179 39037 ft 519 kts 50°
2026-05-06 12:28 44.95622 -64.57131 39026 ft 520 kts 50°
2026-05-06 12:28 45.00022 -64.49104 39026 ft 520 kts 50°
2026-05-06 12:29 45.04439 -64.41022 39022 ft 520 kts 50°
2026-05-06 12:29 45.08858 -64.32913 39022 ft 521 kts 50°
2026-05-06 12:30 45.13282 -64.24775 39034 ft 522 kts 50°
2026-05-06 12:30 45.17674 -64.16671 39031 ft 522 kts 50°
2026-05-06 12:31 45.22088 -64.08501 39030 ft 522 kts 50°
2026-05-06 12:31 45.26501 -64.00312 39026 ft 523 kts 50°
2026-05-06 12:32 45.30912 -63.92102 39039 ft 523 kts 51°
2026-05-06 12:32 45.34573 -63.85269 39037 ft 523 kts 51°
2026-05-06 12:33 45.39695 -63.75683 39032 ft 525 kts 51°
2026-05-06 12:33 45.44106 -63.67402 39027 ft 525 kts 51°
2026-05-06 12:34 45.47769 -63.60506 39027 ft 525 kts 51°
2026-05-06 12:34 45.52170 -63.52197 39035 ft 526 kts 51°
2026-05-06 12:35 45.57286 -63.42511 39027 ft 526 kts 51°
2026-05-06 12:35 45.60971 -63.35511 39026 ft 526 kts 51°
2026-05-06 12:36 45.65333 -63.27205 39023 ft 526 kts 51°
2026-05-06 12:36 45.69720 -63.18826 39018 ft 526 kts 51°
2026-05-06 12:37 45.74090 -63.10454 39021 ft 525 kts 51°
2026-05-06 12:37 45.78455 -63.02067 39020 ft 525 kts 51°
2026-05-06 12:38 45.82786 -62.93722 39016 ft 525 kts 51°
2026-05-06 12:38 45.87142 -62.85302 39012 ft 526 kts 51°
2026-05-06 12:39 45.91491 -62.76872 38998 ft 526 kts 51°
2026-05-06 12:39 45.95836 -62.68424 39000 ft 526 kts 51°
2026-05-06 12:40 46.00147 -62.60017 38991 ft 526 kts 51°
2026-05-06 12:40 46.04482 -62.51537 38993 ft 526 kts 51°
2026-05-06 12:41 46.08808 -62.43051 39007 ft 526 kts 51°
2026-05-06 12:41 46.13134 -62.34538 39010 ft 527 kts 51°
2026-05-06 12:42 46.17434 -62.26050 39002 ft 527 kts 52°
2026-05-06 12:42 46.21744 -62.17514 39009 ft 525 kts 52°
2026-05-06 12:43 46.26033 -62.08997 39012 ft 524 kts 52°
2026-05-06 12:43 46.30319 -62.00461 39018 ft 525 kts 52°
2026-05-06 12:44 46.34575 -61.91957 39010 ft 525 kts 52°
2026-05-06 12:44 46.38852 -61.83386 39011 ft 525 kts 52°
2026-05-06 12:45 46.43124 -61.74798 39007 ft 525 kts 52°
2026-05-06 12:46 46.49523 -61.61884 39002 ft 526 kts 52°
2026-05-06 12:46 46.53753 -61.53316 39010 ft 526 kts 53°
2026-05-06 12:47 46.58007 -61.44671 38997 ft 526 kts 53°
2026-05-06 12:47 46.62253 -61.36016 38995 ft 526 kts 53°
2026-05-06 12:48 46.66497 -61.27338 38982 ft 525 kts 53°
2026-05-06 12:48 46.70683 -61.18751 39005 ft 524 kts 53°
2026-05-06 12:49 46.74898 -61.10079 39014 ft 524 kts 53°
2026-05-06 12:49 46.79108 -61.01392 39013 ft 525 kts 53°
2026-05-06 12:50 46.83317 -60.92679 39035 ft 525 kts 54°
2026-05-06 12:50 46.87493 -60.84006 39018 ft 525 kts 54°
2026-05-06 12:51 46.91690 -60.75261 39021 ft 525 kts 54°
2026-05-06 12:51 46.95882 -60.66500 39023 ft 526 kts 54°
2026-05-06 12:52 47.00066 -60.57728 39014 ft 526 kts 54°
2026-05-06 12:52 47.04227 -60.48976 39011 ft 527 kts 54°
2026-05-06 12:53 47.08409 -60.40152 39023 ft 527 kts 54°
2026-05-06 12:53 47.12583 -60.31318 39024 ft 527 kts 54°
2026-05-06 12:54 47.16749 -60.22470 39027 ft 525 kts 55°
2026-05-06 12:54 47.20890 -60.13647 39030 ft 523 kts 55°
2026-05-06 12:55 47.24988 -60.04892 39034 ft 523 kts 55°
2026-05-06 12:55 47.29106 -59.96065 39043 ft 524 kts 55°
2026-05-06 12:56 47.33228 -59.87199 39037 ft 524 kts 55°
2026-05-06 12:56 47.37316 -59.78378 39040 ft 524 kts 55°
2026-05-06 12:57 47.41423 -59.69488 39041 ft 524 kts 55°
2026-05-06 12:57 47.45524 -59.60583 39057 ft 524 kts 56°
2026-05-06 12:58 47.49619 -59.51660 39057 ft 524 kts 56°
2026-05-06 12:58 47.53707 -59.42725 39065 ft 524 kts 56°
2026-05-06 12:59 47.57762 -59.33832 39067 ft 524 kts 56°
2026-05-06 12:59 47.61835 -59.24871 39068 ft 525 kts 56°
2026-05-06 13:00 47.65896 -59.15908 39078 ft 522 kts 56°
2026-05-06 13:00 47.69928 -59.06982 39088 ft 520 kts 57°
2026-05-06 13:01 47.73917 -58.98118 39089 ft 520 kts 57°
2026-05-06 13:01 47.77926 -58.89181 39083 ft 520 kts 57°
2026-05-06 13:02 47.81932 -58.80222 39082 ft 520 kts 57°
2026-05-06 13:02 47.85928 -58.71255 39085 ft 520 kts 57°
2026-05-06 13:03 47.89919 -58.62274 39081 ft 521 kts 57°
2026-05-06 13:03 47.93883 -58.53321 39077 ft 521 kts 57°
2026-05-06 13:04 47.97869 -58.44289 39074 ft 521 kts 57°
2026-05-06 13:04 48.01844 -58.35251 39094 ft 521 kts 57°
2026-05-06 13:05 48.05822 -58.26177 39085 ft 522 kts 57°
2026-05-06 13:05 48.09794 -58.17087 39084 ft 522 kts 57°
2026-05-06 13:06 48.13735 -58.08036 39082 ft 522 kts 57°
2026-05-06 13:06 48.17695 -57.98913 39063 ft 523 kts 58°
2026-05-06 13:07 48.21653 -57.89761 39076 ft 523 kts 58°
2026-05-06 13:07 48.25604 -57.80597 39092 ft 523 kts 58°
2026-05-06 13:08 48.29519 -57.71484 39082 ft 523 kts 58°
2026-05-06 13:08 48.33454 -57.62295 39065 ft 523 kts 58°
2026-05-06 13:09 48.37392 -57.53066 39064 ft 524 kts 58°
2026-05-06 13:09 48.41315 -57.43842 39072 ft 524 kts 58°
2026-05-06 13:10 48.45210 -57.34652 39073 ft 524 kts 58°
2026-05-06 13:10 48.49130 -57.25370 39072 ft 526 kts 58°
2026-05-06 13:11 48.53052 -57.16054 39061 ft 526 kts 58°
2026-05-06 13:11 48.56967 -57.06718 39048 ft 526 kts 58°
2026-05-06 13:12 48.60844 -56.97443 39052 ft 524 kts 58°
2026-05-06 13:12 48.64718 -56.88145 39044 ft 522 kts 58°
2026-05-06 13:13 48.68581 -56.78837 39025 ft 522 kts 59°
2026-05-06 13:13 48.72437 -56.69516 39026 ft 522 kts 59°
2026-05-06 13:14 48.76288 -56.60173 39034 ft 523 kts 58°
2026-05-06 13:14 48.80116 -56.50857 39040 ft 524 kts 59°
2026-05-06 13:15 48.83963 -56.41458 39039 ft 524 kts 59°
2026-05-06 13:15 48.87800 -56.32051 39044 ft 524 kts 58°
2026-05-06 13:16 48.91632 -56.22624 39045 ft 524 kts 59°
2026-05-06 13:16 48.95457 -56.13182 39041 ft 524 kts 59°
2026-05-06 13:17 48.99250 -56.03783 39051 ft 524 kts 59°
2026-05-06 13:17 49.03059 -55.94311 39052 ft 525 kts 59°
2026-05-06 13:18 49.06868 -55.84808 39042 ft 526 kts 59°
2026-05-06 13:18 49.10665 -55.75299 39043 ft 524 kts 59°
2026-05-06 13:19 49.14418 -55.65866 39044 ft 523 kts 59°
2026-05-06 13:19 49.18188 -55.56355 39045 ft 524 kts 59°
2026-05-06 13:20 49.21964 -55.46799 39027 ft 526 kts 59°
2026-05-06 13:20 49.25738 -55.37210 39017 ft 526 kts 59°
2026-05-06 13:21 49.29477 -55.27678 39020 ft 526 kts 59°
2026-05-06 13:21 49.33236 -55.18057 39012 ft 527 kts 59°
2026-05-06 13:22 49.37000 -55.08390 39007 ft 528 kts 59°
2026-05-06 13:22 49.40756 -54.98707 39007 ft 528 kts 59°
2026-05-06 13:23 49.44506 -54.89005 38999 ft 528 kts 59°
2026-05-06 13:23 49.48227 -54.79340 38991 ft 529 kts 59°
2026-05-06 13:24 49.51971 -54.69582 38992 ft 530 kts 59°
2026-05-06 13:24 49.55702 -54.59820 39002 ft 528 kts 59°
2026-05-06 13:25 49.59413 -54.50071 39013 ft 527 kts 58°
2026-05-06 13:25 49.63094 -54.40369 39002 ft 528 kts 59°
2026-05-06 13:26 49.66798 -54.30571 39001 ft 528 kts 59°
2026-05-06 13:26 49.70492 -54.20760 39001 ft 528 kts 59°
2026-05-06 13:27 49.74154 -54.10997 39017 ft 529 kts 58°
2026-05-06 13:27 49.77836 -54.01145 39006 ft 530 kts 59°
2026-05-06 13:28 49.81514 -53.91268 39011 ft 530 kts 59°
2026-05-06 13:28 49.85185 -53.81370 39009 ft 530 kts 59°
2026-05-06 13:29 49.88848 -53.71455 39006 ft 530 kts 59°
2026-05-06 13:29 49.92480 -53.61588 39012 ft 531 kts 59°
2026-05-06 13:30 49.96131 -53.51629 39014 ft 531 kts 59°
2026-05-06 13:30 49.99777 -53.41648 38994 ft 531 kts 58°
2026-05-06 13:31 50.03400 -53.31689 39009 ft 528 kts 59°
2026-05-06 13:31 50.06982 -53.21807 39013 ft 528 kts 59°
2026-05-06 13:32 50.10578 -53.11846 39018 ft 528 kts 59°
2026-05-06 13:32 50.14167 -53.01868 39017 ft 528 kts 59°
2026-05-06 13:33 50.17745 -52.91881 39019 ft 528 kts 59°
2026-05-06 13:33 50.21294 -52.81935 39016 ft 528 kts 59°
2026-05-06 13:34 50.24856 -52.71916 39017 ft 528 kts 59°
2026-05-06 13:34 50.28412 -52.61873 39022 ft 528 kts 59°
2026-05-06 13:35 50.31954 -52.51829 39021 ft 527 kts 59°
2026-05-06 13:35 50.35487 -52.41774 39021 ft 527 kts 59°
2026-05-06 13:36 50.38986 -52.31774 39019 ft 527 kts 59°
2026-05-06 13:36 50.42505 -52.21681 39028 ft 527 kts 59°
2026-05-06 13:37 50.46005 -52.11598 39021 ft 526 kts 59°
2026-05-06 13:37 50.49446 -52.01565 39156 ft 525 kts 62°
2026-05-06 13:37 50.50936 -51.96331 39352 ft 524 kts 65°
2026-05-06 13:38 50.52356 -51.91065 39511 ft 523 kts 65°
2026-05-06 13:38 50.53746 -51.85776 39659 ft 523 kts 66°
2026-05-06 13:38 50.55116 -51.80490 39782 ft 523 kts 66°
2026-05-06 13:38 50.56480 -51.75190 39956 ft 522 kts 66°
2026-05-06 13:39 50.57839 -51.69894 40023 ft 523 kts 66°
2026-05-06 13:39 50.60564 -51.59266 40029 ft 524 kts 66°
2026-05-06 13:40 50.63267 -51.48700 40027 ft 523 kts 66°
2026-05-06 13:40 50.65978 -51.38063 40025 ft 523 kts 66°
2026-05-06 13:41 50.68680 -51.27412 40036 ft 522 kts 66°
2026-05-06 13:41 50.71365 -51.16775 40027 ft 522 kts 66°
2026-05-06 13:42 50.74022 -51.06200 40027 ft 521 kts 66°
2026-05-06 13:42 50.76680 -50.95570 40034 ft 520 kts 66°
2026-05-06 13:43 50.79327 -50.84935 40047 ft 519 kts 66°
2026-05-06 13:43 50.81952 -50.74332 40044 ft 517 kts 66°
2026-05-06 13:44 50.84567 -50.63727 40047 ft 517 kts 66°
2026-05-06 13:44 50.87154 -50.53184 40043 ft 517 kts 66°
2026-05-06 13:45 50.89747 -50.42563 40067 ft 517 kts 66°
2026-05-06 13:45 50.93609 -50.26645 40050 ft 515 kts 66°
2026-05-06 13:46 50.96151 -50.16109 40049 ft 515 kts 66°
2026-05-06 13:46 50.98699 -50.05494 40046 ft 515 kts 66°
2026-05-06 13:47 51.00778 -49.94597 40063 ft 517 kts 73°
2026-05-06 13:47 51.02440 -49.83470 40049 ft 518 kts 75°
2026-05-06 13:48 51.04024 -49.72313 40056 ft 518 kts 75°
2026-05-06 13:48 51.05588 -49.61215 40062 ft 518 kts 75°
2026-05-06 13:49 51.07164 -49.50030 40063 ft 518 kts 75°
2026-05-06 13:49 51.08733 -49.38847 40059 ft 518 kts 75°
2026-05-06 13:50 51.10291 -49.27658 40062 ft 518 kts 75°
2026-05-06 13:50 51.11838 -49.16467 40064 ft 517 kts 75°
2026-05-06 13:51 51.13361 -49.05361 40066 ft 517 kts 75°
2026-05-06 13:51 51.14884 -48.94175 40075 ft 517 kts 76°
2026-05-06 13:52 51.16397 -48.82974 40072 ft 517 kts 76°
2026-05-06 13:52 51.17898 -48.71771 40068 ft 517 kts 76°
2026-05-06 13:53 51.19380 -48.60633 40073 ft 517 kts 76°
2026-05-06 13:53 51.20860 -48.49415 40067 ft 517 kts 76°
2026-05-06 13:54 51.22329 -48.38188 40081 ft 517 kts 76°
2026-05-06 13:54 51.23786 -48.26970 40080 ft 516 kts 76°
2026-05-06 13:55 51.25219 -48.15843 40080 ft 515 kts 76°
2026-05-06 13:55 51.26652 -48.04634 40083 ft 515 kts 76°
2026-05-06 13:56 51.28074 -47.93416 40084 ft 515 kts 76°
2026-05-06 13:56 51.29485 -47.82198 40084 ft 515 kts 76°
2026-05-06 13:57 51.30875 -47.71046 40087 ft 515 kts 76°
2026-05-06 13:57 51.32265 -47.59809 40088 ft 515 kts 76°
2026-05-06 13:58 51.33644 -47.48573 40089 ft 515 kts 76°
2026-05-06 13:58 51.35011 -47.37329 40097 ft 515 kts 76°
2026-05-06 13:59 51.36367 -47.26085 40097 ft 515 kts 77°
2026-05-06 13:59 51.37704 -47.14902 40098 ft 516 kts 76°
2026-05-06 14:00 51.39041 -47.03623 40105 ft 516 kts 77°
2026-05-06 14:00 51.40370 -46.92320 40108 ft 516 kts 77°
2026-05-06 14:01 51.41687 -46.81012 40105 ft 516 kts 77°
2026-05-06 14:01 51.42983 -46.69780 40112 ft 516 kts 77°
2026-05-06 14:02 51.44280 -46.58449 40115 ft 518 kts 77°
2026-05-06 14:02 51.45571 -46.47064 40113 ft 519 kts 77°
2026-05-06 14:03 51.46852 -46.35664 40115 ft 519 kts 77°
2026-05-06 14:03 51.48113 -46.24339 40116 ft 519 kts 77°
2026-05-06 14:04 51.49371 -46.12930 40117 ft 519 kts 77°
2026-05-06 14:04 51.50619 -46.01505 40127 ft 520 kts 77°
2026-05-06 14:05 51.51859 -45.90057 40124 ft 521 kts 77°
2026-05-06 14:05 51.53079 -45.78675 40127 ft 521 kts 77°
2026-05-06 14:06 51.54297 -45.67200 40129 ft 521 kts 77°
2026-05-06 14:06 51.55504 -45.55721 40129 ft 521 kts 77°
2026-05-06 14:07 51.56700 -45.44236 40130 ft 521 kts 77°
2026-05-06 14:07 51.57876 -45.32827 40135 ft 521 kts 77°
2026-05-06 14:08 51.59049 -45.21338 40135 ft 521 kts 77°
2026-05-06 14:08 51.60211 -45.09837 40135 ft 521 kts 78°
2026-05-06 14:09 51.61362 -44.98330 40140 ft 521 kts 77°
2026-05-06 14:09 51.62493 -44.86904 40141 ft 520 kts 78°
2026-05-06 14:10 51.63619 -44.75411 40144 ft 520 kts 78°
2026-05-06 14:10 51.64735 -44.63901 40145 ft 520 kts 78°
2026-05-06 14:11 51.65839 -44.52391 40142 ft 520 kts 78°
2026-05-06 14:11 51.66924 -44.40957 40165 ft 520 kts 78°
2026-05-06 14:12 51.68006 -44.29429 40152 ft 520 kts 78°
2026-05-06 14:12 51.69076 -44.17902 40152 ft 520 kts 78°
2026-05-06 14:13 51.70134 -44.06378 40150 ft 520 kts 78°
2026-05-06 14:13 51.71180 -43.94859 40155 ft 519 kts 78°
2026-05-06 14:14 51.72209 -43.83406 40166 ft 519 kts 78°
2026-05-06 14:14 51.73232 -43.71887 40149 ft 518 kts 78°
2026-05-06 14:15 51.74241 -43.60387 40150 ft 518 kts 78°
2026-05-06 14:15 51.75239 -43.48877 40158 ft 518 kts 78°
2026-05-06 14:16 51.76220 -43.37439 40145 ft 518 kts 79°
2026-05-06 14:16 51.77196 -43.25923 40157 ft 518 kts 79°
2026-05-06 14:17 51.78158 -43.14419 40156 ft 517 kts 79°
2026-05-06 14:17 51.79110 -43.02917 40150 ft 517 kts 79°
2026-05-06 14:18 51.80050 -42.91416 40149 ft 517 kts 79°
2026-05-06 14:18 51.80972 -42.79985 40150 ft 517 kts 79°
2026-05-06 14:19 51.81890 -42.68467 40162 ft 517 kts 79°
2026-05-06 14:19 51.82795 -42.56960 40153 ft 516 kts 79°
2026-05-06 14:20 51.83689 -42.45448 40147 ft 516 kts 79°
2026-05-06 14:20 51.84565 -42.34023 40152 ft 516 kts 79°
2026-05-06 14:21 51.85436 -42.22515 40147 ft 516 kts 80°
2026-05-06 14:21 51.86296 -42.10995 40169 ft 516 kts 80°
2026-05-06 14:22 51.87144 -41.99471 40147 ft 516 kts 80°
2026-05-06 14:22 51.87981 -41.87951 40147 ft 516 kts 80°
2026-05-06 14:23 51.88802 -41.76492 40144 ft 516 kts 80°
2026-05-06 14:23 51.89617 -41.64957 40143 ft 516 kts 80°
2026-05-06 14:24 51.90420 -41.53424 40162 ft 516 kts 81°
2026-05-06 14:24 51.91209 -41.41938 40141 ft 517 kts 81°
2026-05-06 14:25 51.91992 -41.30366 40137 ft 517 kts 81°
2026-05-06 14:25 51.92764 -41.18782 40139 ft 517 kts 81°
2026-05-06 14:26 51.93524 -41.07191 40133 ft 517 kts 81°
2026-05-06 14:26 51.94274 -40.95599 40156 ft 517 kts 81°
2026-05-06 14:27 51.95006 -40.84084 40126 ft 517 kts 81°
2026-05-06 14:27 51.95720 -40.72686 40126 ft 517 kts 81°
2026-05-06 14:28 51.96438 -40.61050 40130 ft 517 kts 81°
2026-05-06 14:28 51.97141 -40.49444 40129 ft 518 kts 82°
2026-05-06 14:29 51.97835 -40.37813 40146 ft 518 kts 82°
2026-05-06 14:29 51.98516 -40.26199 40126 ft 517 kts 82°
2026-05-06 14:30 51.99186 -40.14574 40130 ft 517 kts 82°
2026-05-06 14:30 51.99850 -40.03038 40125 ft 517 kts 81°
2026-05-06 14:31 52.01211 -39.91639 40123 ft 514 kts 74°
2026-05-06 14:31 52.02815 -39.80340 40137 ft 514 kts 74°
2026-05-06 14:32 52.04447 -39.69052 40124 ft 513 kts 74°
2026-05-06 14:32 52.06062 -39.57756 40124 ft 513 kts 74°
2026-05-06 14:33 52.07646 -39.46524 40119 ft 514 kts 74°
2026-05-06 14:33 52.09229 -39.35193 40122 ft 514 kts 74°
2026-05-06 14:34 52.10800 -39.23863 40125 ft 513 kts 75°
2026-05-06 14:34 52.12347 -39.12614 40124 ft 513 kts 75°
2026-05-06 14:35 52.13813 -39.01879 40124 ft 513 kts 75°
2026-05-06 14:35 52.14991 -38.93200 40124 ft 513 kts 75°
2026-05-06 14:36 52.16519 -38.81863 40124 ft 513 kts 75°
2026-05-06 14:36 52.17568 -38.74028 40126 ft 512 kts 75°
2026-05-06 14:37 52.18433 -38.67530 40124 ft 512 kts 75°
2026-05-06 14:37 52.19934 -38.56189 40124 ft 512 kts 75°
2026-05-06 14:38 52.21425 -38.44839 40121 ft 512 kts 75°
2026-05-06 14:38 52.22904 -38.33485 40121 ft 512 kts 76°
2026-05-06 14:39 52.24362 -38.22208 40121 ft 511 kts 76°
2026-05-06 14:39 52.25819 -38.10839 40121 ft 511 kts 76°
2026-05-06 14:40 52.27264 -37.99473 40114 ft 511 kts 76°
2026-05-06 14:40 52.28698 -37.88103 40118 ft 511 kts 76°
2026-05-06 14:41 52.30113 -37.76796 40109 ft 511 kts 76°
2026-05-06 14:41 52.31526 -37.65404 40111 ft 511 kts 76°
2026-05-06 14:42 52.32930 -37.53990 40110 ft 511 kts 76°
2026-05-06 14:42 52.34311 -37.42668 40107 ft 511 kts 76°
2026-05-06 14:43 52.35691 -37.31255 40110 ft 511 kts 76°
2026-05-06 14:43 52.37060 -37.19831 40108 ft 512 kts 77°
2026-05-06 14:44 52.38419 -37.08399 40107 ft 512 kts 77°
2026-05-06 14:45 52.40400 -36.91545 40105 ft 512 kts 77°
2026-05-06 14:45 52.41021 -36.86224 40105 ft 512 kts 77°
2026-05-06 14:46 52.41995 -36.77818 40100 ft 512 kts 77°
2026-05-06 14:47 52.43281 -36.66642 40102 ft 512 kts 77°
2026-05-06 14:47 52.44588 -36.55179 40102 ft 511 kts 77°
2026-05-06 14:48 52.45883 -36.43720 40102 ft 511 kts 77°
2026-05-06 14:48 52.47167 -36.32250 40102 ft 511 kts 77°
2026-05-06 14:49 52.48226 -36.22710 40099 ft 511 kts 77°
2026-05-06 14:49 52.49231 -36.13593 40101 ft 511 kts 78°
2026-05-06 14:50 52.50486 -36.02110 40102 ft 511 kts 78°
2026-05-06 14:50 52.51729 -35.90621 40100 ft 511 kts 78°
2026-05-06 14:51 52.52953 -35.79202 40097 ft 511 kts 78°
2026-05-06 14:51 52.54175 -35.67694 40097 ft 511 kts 78°
2026-05-06 14:52 52.55384 -35.56192 40100 ft 511 kts 78°
2026-05-06 14:52 52.56583 -35.44681 40101 ft 511 kts 78°
2026-05-06 14:53 52.57761 -35.33253 40095 ft 511 kts 78°
2026-05-06 14:53 52.58937 -35.21736 40094 ft 511 kts 79°
2026-05-06 14:54 52.60100 -35.10223 40088 ft 511 kts 79°
2026-05-06 14:54 52.61254 -34.98691 40090 ft 510 kts 79°
2026-05-06 14:55 52.62386 -34.87256 40085 ft 510 kts 79°
2026-05-06 14:55 52.63516 -34.75721 40088 ft 510 kts 79°
2026-05-06 14:56 52.64634 -34.64194 40082 ft 510 kts 79°
2026-05-06 14:56 52.65711 -34.52974 40088 ft 510 kts 80°
2026-05-06 14:57 52.66799 -34.41522 40087 ft 510 kts 80°
2026-05-06 14:57 52.67883 -34.29980 40084 ft 510 kts 80°
2026-05-06 14:58 52.68956 -34.18426 40077 ft 510 kts 80°
2026-05-06 14:58 52.70017 -34.06886 40082 ft 510 kts 80°
2026-05-06 14:59 52.71069 -33.95314 40077 ft 510 kts 81°
2026-05-06 14:59 52.72102 -33.83825 40070 ft 510 kts 81°
2026-05-06 15:00 52.73130 -33.72259 40067 ft 510 kts 81°
2026-05-06 15:00 52.74148 -33.60669 40072 ft 510 kts 81°
2026-05-06 15:01 52.75156 -33.49063 40071 ft 511 kts 81°
2026-05-06 15:01 52.76148 -33.37511 40058 ft 512 kts 81°
2026-05-06 15:02 52.77136 -33.25859 40058 ft 513 kts 81°
2026-05-06 15:02 52.78113 -33.14197 40054 ft 512 kts 81°
2026-05-06 15:03 52.79078 -33.02540 40057 ft 513 kts 81°
2026-05-06 15:03 52.80032 -32.90873 40050 ft 512 kts 82°
2026-05-06 15:04 52.80968 -32.79286 40050 ft 512 kts 82°
2026-05-06 15:04 52.81899 -32.67603 40047 ft 512 kts 82°
2026-05-06 15:05 52.82818 -32.55940 40042 ft 512 kts 82°
2026-05-06 15:05 52.83724 -32.44271 40037 ft 512 kts 82°
2026-05-06 15:06 52.84615 -32.32666 40030 ft 512 kts 82°
2026-05-06 15:06 52.85500 -32.20970 40032 ft 512 kts 82°
2026-05-06 15:07 52.86373 -32.09276 40029 ft 512 kts 82°
2026-05-06 15:07 52.87230 -31.97646 40033 ft 512 kts 82°
2026-05-06 15:08 52.88080 -31.85945 40019 ft 513 kts 83°
2026-05-06 15:08 52.88920 -31.74221 40022 ft 513 kts 83°
2026-05-06 15:09 52.89749 -31.62484 40020 ft 513 kts 83°
2026-05-06 15:09 52.90567 -31.50746 40015 ft 513 kts 83°
2026-05-06 15:10 52.91367 -31.39082 40015 ft 513 kts 83°
2026-05-06 15:10 52.92162 -31.27331 40013 ft 513 kts 83°
2026-05-06 15:11 52.92944 -31.15582 40004 ft 514 kts 83°
2026-05-06 15:11 52.93715 -31.03822 39999 ft 514 kts 83°
2026-05-06 15:12 52.94471 -30.92110 39999 ft 515 kts 83°
2026-05-06 15:12 52.95221 -30.80316 39994 ft 515 kts 83°
2026-05-06 15:13 52.95959 -30.68519 39987 ft 514 kts 83°
2026-05-06 15:13 52.96684 -30.56749 39986 ft 514 kts 84°
2026-05-06 15:14 52.97398 -30.44959 39985 ft 514 kts 84°
2026-05-06 15:14 52.98095 -30.33244 39976 ft 514 kts 84°
2026-05-06 15:15 52.98786 -30.21449 39979 ft 513 kts 84°
2026-05-06 15:15 52.99460 -30.09715 39976 ft 510 kts 84°
2026-05-06 15:16 53.00366 -29.98051 39978 ft 509 kts 77°
2026-05-06 15:16 53.01903 -29.86667 39974 ft 509 kts 76°
2026-05-06 15:17 53.03548 -29.75226 39973 ft 509 kts 76°
2026-05-06 15:17 53.05194 -29.63779 39983 ft 509 kts 76°
2026-05-06 15:18 53.06816 -29.52328 39987 ft 509 kts 76°
2026-05-06 15:18 53.08411 -29.40939 39988 ft 509 kts 76°
2026-05-06 15:19 53.10005 -29.29464 39991 ft 509 kts 76°
2026-05-06 15:19 53.11587 -29.17978 39987 ft 509 kts 76°
2026-05-06 15:20 53.13159 -29.06489 39996 ft 509 kts 77°